Location: Arcones
(41.1182°N, 3.7238°W)
Time: 01:57:18
(UTC+00:00)

ARIANE 5 R/B - Pass Details

Date: 11 December 2025
Orbit: 747 x 792 km, 98.8° (Epoch: 14 January)

Event Time Altitude Azimuth Distance (km) Brightness Sun altitude
Rises 17:15:55 0° 145° (SE) 3,202 5.6 -5.8°
Reaches altitude 10° 17:18:17 10° 138° (SE) 2,288 4.8 -6.2°
Maximum altitude 17:23:00 42° 69° (ENE) 1,095 2.9 -7.0°
Drops below altitude 10° 17:27:48 10° 0° (N) 2,330 4.8 -7.8°
Sets 17:30:13 0° 354° (N) 3,268 5.6 -8.2°
